Location: Unspecified
(0.0000°N, 0.0000°E)
Time: 14:26:28
(UTC+00:00)

STARLINK-36917 - Pass Details

Date: 04 March 2026
Orbit: 265 x 266 km, 53.2° (Epoch: 6 March)

Event Time Altitude Azimuth Distance (km) Brightness Sun altitude
Rises 19:01:31 0° 218° (SW) 1,835 6.0 -12.4°
Reaches altitude 10° 19:03:24 10° 222° (SW) 1,036 4.8 -12.9°
Maximum altitude 19:05:39 61° 303° (WNW) 295 1.5 -13.4°
Enters shadow 19:07:00 21° 21° (NNE) 656 2.8 -13.8°
